ラ・サグラ彗星

233P/La Sagra (2020)

English version
Home page
Updated on December 28, 2022

---------------------------------------------------------------------

・ プロフィール

・ 軌道要素

Epoch 2020 Sept. 28.0 TT = JDT 2459120.5                                        
T 2020 Oct. 1.67147 TT                                  Rudenko                 
q   1.7826712            (2000.0)            P               Q                  
n   0.18678805     Peri.   27.05769     -0.19915882     -0.96158129             
a   3.0308887      Node    74.92694     +0.85998101     -0.26393545             
e   0.4118322      Incl.   11.28381     +0.46986001     +0.07549500             
P   5.28                                                                        
From 113 observations 2005 Feb. 9-2021 Apr. 17, mean residual 0".7.             

・ 光度変化

        m1 = 16.5 + 5 logΔ + 10.0 log r

---------------------------------------------------------------------

軌道要素はM.P.E.C. 2021-J28に掲載されたものです。
光度グラフはComet for Windowsで作成したものです。

---------------------------------------------------------------------

Copyright(C) Seiichi Yoshida (comet@aerith.net). All rights reserved.